[[{"header":{"parameterUnit":"m.s-1","parameterCategory":1,"la1":30.2991,"la2":30.254,"lo1":-89.0895,"lo2":-89.0444,"dy":0.0017,"dx":0.0017,"nx":28,"ny":28,"refTime":"2023-07-26T21:00:00:Z","depth":0,"parameterNumber":2,"parameterNumberName":"U-component_of_WINDS"},"data":[0,0,0,0,0,0,0,0,0,0,0,0,0,0,0,0,0,0,0,0,0,0,0,0,0,0,0,0,0,0,0,0,0,0,0,0,0,0,0,0,0,0,0,0,0,0,0,0,0,0,0,0,0,0,0,0,0,0,2.1257,2.1257,0,2.1279,2.1279,2.1279,2.1225,2.1223,2.1222,2.122,2.1244,2.1246,2.1248,0,0,0,0,0,0,0,0,0,0,0,0,0,2.1167,2.1169,2.1257,2.1257,2.1257,2.1279,2.1279,2.1279,2.1225,2.1223,2.1221,2.1219,2.1243,2.1246,2.1248,0,0,0,0,0,0,0,0,0,0,0,0,0,2.1199,2.117,2.1256,2.1233,2.1231,2.1278,2.1279,2.1279,2.1226,2.1223,2.1221,2.1218,2.1242,2.1245,2.1249,2.132,0,0,2.1259,2.126,0,0,0,0,0,0,0,0,2.1197,2.1203,2.1236,2.1235,2.1233,2.1246,2.1256,2.1293,2.1227,2.1228,2.122,2.1217,2.1247,2.125,2.1259,2.1321,2.1322,2.1259,2.1261,2.1263,2.1263,0,0,0,0,0,0,0,2.1195,2.1201,2.1265,2.1237,2.1234,2.1221,2.1223,2.1263,2.1251,2.1228,2.1224,2.1227,2.1245,2.1256,2.1259,2.1323,2.1259,2.1262,2.1264,2.1265,2.1441,2.1443,0,0,0,0,0,0,2.1196,2.12,2.1265,2.1266,2.1208,2.1225,2.1226,2.1245,2.1251,2.1249,2.1229,2.1224,2.1252,2.1256,2.126,2.1341,2.1263,2.1266,2.1268,2.1438,2.1441,2.1444,0,0,0,0,0,0,2.1194,2.1202,2.1264,2.1232,2.1239,2.1229,2.125,2.1246,2.1257,2.1252,2.125,2.1242,2.125,2.1255,2.1305,2.1341,2.1267,2.127,2.1435,2.1439,2.1443,2.1506,0,0,0,0,0,0,2.1192,2.1202,2.123,2.1233,2.124,2.1308,2.1252,2.1249,2.1263,2.1257,2.1264,2.1263,2.1248,2.13,2.1308,2.1345,2.1273,2.1432,2.1437,2.1442,2.1501,2.1512,2.1521,0,0,0,0,0,2.1189,2.1248,2.1231,2.1239,2.1275,2.1311,2.1315,2.1297,2.1266,2.1293,2.1289,2.1262,2.1337,2.1306,2.1314,2.1352,2.1429,2.1435,2.1441,2.1496,2.1509,2.1521,0,0,0,0,0,0,2.125,2.1248,2.123,2.1291,2.1301,2.1302,2.1335,2.1313,2.1332,2.1326,2.1304,2.1306,2.1358,2.1361,2.1326,2.142,2.1377,2.1386,2.1416,2.1429,2.1439,2.1436,2.1276,0,0,0,0,0,2.1271,2.13,2.1297,2.1351,2.1357,2.1345,2.1361,2.1346,2.1356,2.136,2.136,2.1371,2.1396,2.1413,2.1436,2.1501,2.15,2.1532,2.1542,2.155,2.1557,2.1588,2.16,2.1464,2.1464,2.1464,0,0,2.1314,2.1316,2.1336,2.1363,2.137,2.1399,2.1349,2.1384,2.1406,2.1365,2.141,2.1411,2.1421,2.1478,2.1503,2.1481,2.1594,2.1558,2.1565,2.1566,2.1595,2.1608,2.1619,2.1468,2.1467,2.1467,0,0,2.1406,2.1412,2.1456,2.1463,2.1472,2.1464,2.1475,2.1478,2.1476,2.1521,2.149,2.1516,2.1561,2.1568,2.1578,2.1671,2.1646,2.168,2.1732,2.1763,2.1773,2.1783,2.1813,2.1824,2.1687,2.1687,2.1687,0,2.1458,2.1502,2.1482,2.1518,2.1529,2.1493,2.1536,2.1544,2.1561,2.157,2.1546,2.1599,2.1604,2.166,2.1682,2.1693,2.1702,2.1678,2.1774,2.1783,2.1791,2.1819,2.1831,2.1691,2.169,2.169,2.1689,0,2.1564,2.1594,2.1629,2.1644,2.166,2.17,2.1685,2.1704,2.1687,2.1681,2.1726,2.173,2.1752,2.1765,2.175,2.1818,2.1804,2.1778,2.1734,2.1808,2.1834,2.1845,2.1696,2.1695,2.1693,2.1692,0,0,2.1695,2.1697,2.171,2.1714,2.1721,2.1745,2.1782,2.1802,2.1817,2.183,2.1859,2.1897,2.1871,2.1883,2.1869,2.1896,2.1964,2.1865,2.1865,2.1881,2.2035,2.2053,2.2066,2.1949,2.1951,2.1953,2.2033,0,2.1783,2.1846,2.1828,2.189,2.1916,2.1882,2.1914,2.1921,2.1916,2.1938,2.1932,2.1958,2.1924,2.193,2.1956,2.1951,2.1995,2.1945,2.1973,2.1975,2.1969,2.208,2.2099,2.2175,2.2044,2.2046,2.2047,0,2.1895,2.1909,2.1974,2.1973,2.1983,2.2013,2.2028,2.205,2.2057,2.2051,2.2062,2.2042,2.2077,2.2035,2.2082,2.2048,2.2059,2.2059,2.2061,2.206,2.2013,2.2079,2.22,2.221,2.2063,2.2062,2.2061,0,2.1979,2.2016,2.2058,2.2064,2.2065,2.2086,2.2087,2.2092,2.2104,2.2118,2.2125,2.2144,2.2154,2.2168,2.2153,2.2124,2.2201,2.2159,2.2195,2.2196,2.2211,2.2209,2.2331,2.2224,2.2223,2.2223,2.2223,0,2.2078,2.2118,2.2095,2.2121,2.2164,2.2143,2.2186,2.2184,2.2188,2.2212,2.2184,2.2207,2.2187,2.2208,2.2197,2.2235,2.2241,2.2236,2.2232,2.2237,2.2237,2.2241,2.2234,2.2226,2.2226,2.2225,2.2224,0,2.2178,2.2166,2.2208,2.2205,2.2205,2.2237,2.2234,2.2257,2.225,2.228,2.2286,2.2275,2.2298,2.2284,2.2309,2.2301,2.235,2.2341,2.2347,2.2343,2.2379,2.2375,2.2506,2.252,2.2406,2.2408,2.2409,0,2.2241,2.227,2.2269,2.2282,2.2285,2.2308,2.232,2.23,2.2313,2.2322,2.2344,2.2364,2.2379,2.2418,2.2411,2.2429,2.2417,2.2462,2.242,2.2423,2.2414,2.2411,2.2412,2.247,2.2471,2.2472,2.2473,0,2.2351,2.2342,2.236,2.2374,2.2389,2.24,2.2409,2.2422,2.2402,2.2418,2.244,2.2452,2.2475,2.2495,2.251,2.2511,2.2488,2.2487,2.2495,2.2499,2.25,2.2496,2.2367,2.2483,2.2482,2.2481,2.2481,2.248,2.2432,2.2455,2.2457,2.2476,2.2481,2.2489,2.2509,2.2503,2.2522,2.2538,2.2526,2.2552,2.2556,2.2573,2.2577,2.2596,2.2578,2.2592,2.2595,2.2598,2.2601,2.2499,2.2599,2.2599,2.2599,2.2599,2.2598,0,2.2537,2.2536,2.2555,2.2566,2.2581,2.2559,2.2567,2.258,2.2603,2.2609,2.2623,2.2648,2.2666,2.2661,2.2677,2.2694,2.2683,2.2698,2.2695,2.2695,2.2618,2.2607,2.2706,2.2706,2.2706,2.2706,2.2706,2.2706,2.2594,2.263,2.2621,2.2659,2.2658,2.2682,2.2688,2.2695,2.2699,2.2727,2.2741,2.2738,2.2738,2.2754,2.2769,2.2767,2.2773,2.2791,2.2785,2.2712,2.2701,2.2691,2.268,2.2794,2.2794,2.2861,2.2861,2.2862]},{"header":{"parameterUnit":"m.s-1","parameterCategory":1,"la1":30.2991,"la2":30.254,"lo1":-89.0895,"lo2":-89.0444,"dy":0.0017,"dx":0.0017,"nx":28,"ny":28,"refTime":"2023-07-26T21:00:00:Z","depth":0,"parameterNumber":3,"parameterNumberName":"V-component_of_WINDS"},"data":[0,0,0,0,0,0,0,0,0,0,0,0,0,0,0,0,0,0,0,0,0,0,0,0,0,0,0,0,0,0,0,0,0,0,0,0,0,0,0,0,0,0,0,0,0,0,0,0,0,0,0,0,0,0,0,0,0,0,2.5602,2.5601,0,2.5547,2.5546,2.5545,2.5468,2.5466,2.5465,2.5464,2.5407,2.5407,2.5407,0,0,0,0,0,0,0,0,0,0,0,0,0,2.5639,2.5639,2.5602,2.5601,2.56,2.5547,2.5546,2.5545,2.5468,2.5466,2.5465,2.5463,2.5407,2.5407,2.5407,0,0,0,0,0,0,0,0,0,0,0,0,0,2.5607,2.5638,2.5602,2.5555,2.5551,2.5547,2.5546,2.5545,2.5468,2.5466,2.5464,2.5462,2.5408,2.5407,2.5407,2.5444,0,0,2.5406,2.5405,0,0,0,0,0,0,0,0,2.5609,2.5606,2.5563,2.5558,2.5553,2.5512,2.5538,2.5511,2.5469,2.5499,2.5464,2.5461,2.5444,2.544,2.5434,2.5442,2.5439,2.5406,2.5405,2.5405,2.5405,0,0,0,0,0,0,0,2.5611,2.5608,2.558,2.5562,2.5556,2.5537,2.553,2.5533,2.5483,2.5497,2.5491,2.5485,2.5441,2.5435,2.5432,2.5438,2.5406,2.5405,2.5405,2.5405,2.547,2.5472,0,0,0,0,0,0,2.5621,2.561,2.5582,2.5578,2.5577,2.5538,2.553,2.5527,2.5483,2.5475,2.5487,2.5482,2.5436,2.5433,2.543,2.5469,2.5405,2.5405,2.5405,2.5468,2.5471,2.5473,0,0,0,0,0,0,2.5622,2.5619,2.5584,2.5593,2.5587,2.5539,2.5536,2.5527,2.5521,2.5476,2.5467,2.549,2.5435,2.5431,2.5441,2.5466,2.5405,2.5404,2.5466,2.5469,2.5472,2.5548,0,0,0,0,0,0,2.5623,2.562,2.5634,2.5593,2.5586,2.5596,2.5538,2.5527,2.5521,2.5513,2.5476,2.5468,2.5433,2.5442,2.544,2.5464,2.5404,2.5463,2.5467,2.5471,2.5543,2.5553,2.5562,0,0,0,0,0,2.5625,2.5658,2.5635,2.5632,2.5603,2.5598,2.5593,2.5552,2.5523,2.5536,2.5507,2.547,2.5464,2.5443,2.5441,2.5465,2.5462,2.5466,2.5471,2.5539,2.5551,2.5562,0,0,0,0,0,0,2.5703,2.5652,2.5626,2.5647,2.5627,2.5585,2.56,2.5567,2.5555,2.5548,2.5497,2.549,2.5505,2.5486,2.5465,2.5498,2.5457,2.5461,2.5509,2.5521,2.553,2.5534,2.5404,0,0,0,0,0,2.5723,2.5723,2.5678,2.5701,2.5693,2.5648,2.5644,2.5614,2.5591,2.5582,2.5554,2.5533,2.5526,2.5523,2.5514,2.554,2.553,2.5556,2.5565,2.5573,2.5577,2.5587,2.5597,2.5487,2.5487,2.5487,0,0,2.5764,2.5736,2.5739,2.5716,2.5697,2.5697,2.5642,2.5645,2.5644,2.5583,2.559,2.5568,2.5541,2.5559,2.5565,2.5544,2.5605,2.5579,2.5585,2.5585,2.5592,2.5603,2.5612,2.549,2.549,2.5489,0,0,2.5838,2.5818,2.5834,2.5815,2.5787,2.5757,2.5761,2.5723,2.5706,2.5712,2.5665,2.5663,2.5653,2.5635,2.5625,2.569,2.5655,2.5689,2.5738,2.5748,2.5757,2.5764,2.5785,2.5794,2.5693,2.5693,2.5694,0,2.5892,2.5891,2.5846,2.5851,2.5842,2.5786,2.5801,2.5785,2.5756,2.575,2.5726,2.5711,2.5689,2.57,2.5716,2.571,2.5712,2.5693,2.5759,2.5766,2.5772,2.5792,2.58,2.5698,2.5697,2.5697,2.5696,0,2.5958,2.5958,2.5974,2.5946,2.5939,2.5949,2.5905,2.5902,2.5872,2.5845,2.585,2.5822,2.5806,2.5806,2.5778,2.5813,2.58,2.5769,2.5726,2.5788,2.5805,2.5813,2.5704,2.5702,2.5701,2.57,0,0,2.608,2.6026,2.6033,2.6018,2.5982,2.5981,2.5988,2.5971,2.5969,2.5951,2.5954,2.5946,2.5916,2.5904,2.5873,2.5882,2.5933,2.5849,2.5847,2.5864,2.5967,2.599,2.5999,2.5909,2.591,2.5911,2.5969,0,2.6146,2.6155,2.6114,2.6133,2.6131,2.6078,2.6083,2.6061,2.6035,2.6029,2.6001,2.5995,2.5957,2.5949,2.5956,2.5925,2.5952,2.5921,2.591,2.591,2.5917,2.6009,2.6033,2.6089,2.5975,2.5977,2.5977,0,2.6224,2.6208,2.6228,2.6188,2.6186,2.6192,2.6172,2.6168,2.6141,2.6121,2.6108,2.6071,2.6073,2.6034,2.6036,2.6015,2.6009,2.5993,2.5994,2.599,2.5947,2.6006,2.6106,2.6114,2.5988,2.5987,2.5987,0,2.6308,2.6292,2.6301,2.6291,2.6246,2.6251,2.6233,2.6204,2.6196,2.6179,2.6172,2.6156,2.6147,2.6135,2.6094,2.6069,2.61,2.6057,2.6082,2.6083,2.609,2.609,2.6189,2.6089,2.6089,2.6089,2.6088,0,2.6385,2.6398,2.6338,2.6343,2.6356,2.6309,2.6322,2.6299,2.6273,2.6272,2.6225,2.6224,2.6171,2.6165,2.6133,2.6138,2.6135,2.6118,2.6109,2.6121,2.6123,2.6115,2.6109,2.6091,2.609,2.609,2.609,0,2.6481,2.6442,2.6447,2.6404,2.6393,2.6405,2.6367,2.6369,2.634,2.6339,2.6336,2.629,2.6279,2.6238,2.6218,2.6196,2.6211,2.6195,2.622,2.6214,2.624,2.6237,2.6336,2.6345,2.6241,2.6242,2.6243,0,2.6532,2.6541,2.6498,2.6494,2.6477,2.6471,2.6462,2.6416,2.6408,2.6378,2.6383,2.6369,2.6355,2.6341,2.6305,2.6288,2.627,2.6306,2.6267,2.6279,2.6268,2.6267,2.6267,2.6314,2.6315,2.6316,2.6317,0,2.6625,2.6605,2.6594,2.6576,2.6567,2.6551,2.6532,2.6531,2.6479,2.6472,2.6461,2.645,2.6429,2.6414,2.6392,2.6371,2.6335,2.6329,2.6334,2.6346,2.6359,2.635,2.624,2.6327,2.6326,2.6325,2.6325,2.6324,2.6699,2.6703,2.6673,2.6663,2.6643,2.6626,2.6625,2.6596,2.6586,2.6564,2.6537,2.6529,2.65,2.6465,2.6448,2.6439,2.6419,2.6427,2.6428,2.643,2.6435,2.6362,2.6435,2.6435,2.6435,2.6434,2.6434,0,2.6788,2.6766,2.6757,2.6731,2.6722,2.6689,2.6665,2.666,2.6653,2.6629,2.6616,2.6602,2.6587,2.655,2.6531,2.6531,2.6514,2.6528,2.6527,2.6522,2.6455,2.6452,2.6542,2.6542,2.6542,2.6542,2.6542,2.6542,2.6833,2.6838,2.6814,2.6809,2.6786,2.6778,2.6767,2.675,2.673,2.6717,2.6704,2.668,2.665,2.6629,2.6613,2.6602,2.6597,2.6616,2.66,2.6537,2.6527,2.6517,2.6514,2.6616,2.6616,2.6667,2.6667,2.6667]}]]